• In Hungary
  • List of Countries
  • For 7 days
  • Water Temperature
  • Satellite Maps
  • Weather Map
  • News
  • Weather Widgets
  • user-avatar
    Login

    Hourly Weather Shymkent

    Today, 25 June, Monday

    Time Temperature Precipitation Wind Pressure Humidity
    00:00 +23°C° 0 mm 1 mps 712 mmHg 38%
    01:00 +22°C° 0 mm 1 mps 712 mmHg 40%
    02:00 +22°C° 0 mm 1 mps 712 mmHg 41%
    03:00 +21°C° 0 mm 1 mps 712 mmHg 42%
    04:00 +21°C° 0 mm 1 mps 712 mmHg 43%
    05:00 +21°C° 0 mm 1 mps 712 mmHg 44%
    06:00 +22°C° 0 mm 1 mps 712 mmHg 41%
    07:00 +24°C° 0 mm 1 mps 712 mmHg 39%
    08:00 +26°C° 0 mm 2 mps 713 mmHg 36%
    09:00 +27°C° 0 mm 2 mps 713 mmHg 34%
    10:00 +28°C° 0 mm 3 mps 713 mmHg 31%
    11:00 +29°C° 0 mm 3 mps 713 mmHg 28%
    12:00 +30°C° 0 mm 4 mps 713 mmHg 27%
    13:00 +30°C° 0 mm 4 mps 713 mmHg 26%
    14:00 +30°C° 0 mm 4 mps 713 mmHg 25%
    15:00 +30°C° 0 mm 4 mps 713 mmHg 26%
    16:00 +30°C° 0 mm 4 mps 712 mmHg 26%
    17:00 +30°C° 0 mm 4 mps 712 mmHg 27%
    18:00 +28°C° 0 mm 3 mps 712 mmHg 31%
    19:00 +26°C° 0 mm 3 mps 712 mmHg 35%
    20:00 +25°C° 0 mm 2 mps 712 mmHg 39%
    21:00 +24°C° 0 mm 2 mps 712 mmHg 41%
    22:00 +23°C° 0 mm 2 mps 712 mmHg 42%
    23:00 +21°C° 0 mm 2 mps 712 mmHg 43%

    Tomorrow, 26 June, Tuesday

    Time Temperature Precipitation Wind Pressure Humidity
    00:00 +21°C° 0.1 mm 2 mps 712 mmHg 45%
    01:00 +20°C° 0.1 mm 2 mps 711 mmHg 46%
    02:00 +20°C° 0.1 mm 2 mps 711 mmHg 47%
    03:00 +20°C° 0 mm 2 mps 711 mmHg 48%
    04:00 +20°C° 0 mm 2 mps 711 mmHg 48%
    05:00 +20°C° 0 mm 1 mps 711 mmHg 48%
    06:00 +22°C° 0 mm 1 mps 712 mmHg 45%
    07:00 +24°C° 0 mm 1 mps 712 mmHg 42%
    08:00 +25°C° 0 mm 1 mps 713 mmHg 39%
    09:00 +26°C° 0 mm 2 mps 713 mmHg 36%
    10:00 +28°C° 0 mm 3 mps 713 mmHg 34%
    11:00 +29°C° 0 mm 3 mps 713 mmHg 31%
    12:00 +29°C° 0 mm 3 mps 713 mmHg 30%
    13:00 +30°C° 0 mm 3 mps 713 mmHg 28%
    14:00 +32°C° 0 mm 4 mps 713 mmHg 26%
    15:00 +31°C° 0 mm 3 mps 713 mmHg 26%
    16:00 +31°C° 0 mm 3 mps 712 mmHg 25%
    17:00 +31°C° 0 mm 3 mps 712 mmHg 25%
    18:00 +29°C° 0 mm 2 mps 712 mmHg 28%
    19:00 +27°C° 0 mm 2 mps 712 mmHg 31%
    20:00 +26°C° 0 mm 1 mps 711 mmHg 34%
    21:00 +25°C° 0 mm 1 mps 711 mmHg 35%
    22:00 +24°C° 0 mm 2 mps 711 mmHg 37%
    23:00 +23°C° 0 mm 2 mps 711 mmHg 38%

    Day after tomorrow, 27 June, Wednesday

    Time Temperature Precipitation Wind Pressure Humidity
    00:00 +23°C° 0 mm 2 mps 711 mmHg 39%
    01:00 +21°C° 0 mm 2 mps 710 mmHg 39%
    02:00 +21°C° 0 mm 2 mps 710 mmHg 40%
    03:00 +20°C° 0 mm 2 mps 710 mmHg 40%
    04:00 +20°C° 0 mm 2 mps 710 mmHg 41%
    05:00 +20°C° 0 mm 2 mps 710 mmHg 41%
    06:00 +23°C° 0 mm 1 mps 710 mmHg 38%
    07:00 +25°C° 0 mm 1 mps 710 mmHg 34%
    08:00 +27°C° 0 mm 1 mps 711 mmHg 31%
    09:00 +28°C° 0 mm 2 mps 711 mmHg 29%
    10:00 +29°C° 0 mm 2 mps 711 mmHg 26%
    11:00 +31°C° 0 mm 3 mps 711 mmHg 24%
    12:00 +31°C° 0 mm 3 mps 711 mmHg 23%
    13:00 +33°C° 0 mm 4 mps 710 mmHg 22%
    14:00 +34°C° 0 mm 4 mps 710 mmHg 21%
    15:00 +34°C° 0 mm 4 mps 710 mmHg 22%
    16:00 +34°C° 0 mm 4 mps 710 mmHg 22%
    17:00 +34°C° 0 mm 4 mps 710 mmHg 22%
    18:00 +31°C° 0 mm 3 mps 710 mmHg 27%
    19:00 +29°C° 0 mm 3 mps 710 mmHg 32%
    20:00 +26°C° 0 mm 2 mps 710 mmHg 37%
    21:00 +26°C° 0 mm 2 mps 710 mmHg 38%
    22:00 +25°C° 0 mm 2 mps 710 mmHg 39%
    23:00 +24°C° 0 mm 2 mps 710 mmHg 41%

    28 June, Thursday

    Time Temperature Precipitation Wind Pressure Humidity
    00:00 +23°C° 0 mm 2 mps 709 mmHg 41%
    01:00 +23°C° 0 mm 2 mps 709 mmHg 41%
    02:00 +23°C° 0 mm 2 mps 709 mmHg 41%
    03:00 +23°C° 0 mm 2 mps 709 mmHg 41%
    04:00 +21°C° 0 mm 2 mps 709 mmHg 41%
    05:00 +21°C° 0 mm 2 mps 709 mmHg 41%
    06:00 +24°C° 0 mm 2 mps 710 mmHg 37%
    07:00 +27°C° 0 mm 1 mps 710 mmHg 34%
    08:00 +29°C° 0 mm 1 mps 710 mmHg 31%
    09:00 +30°C° 0 mm 2 mps 710 mmHg 29%
    10:00 +31°C° 0 mm 3 mps 710 mmHg 27%
    11:00 +33°C° 0 mm 4 mps 711 mmHg 26%
    12:00 +34°C° 0 mm 4 mps 710 mmHg 25%
    13:00 +34°C° 0 mm 4 mps 710 mmHg 23%
    14:00 +35°C° 0 mm 5 mps 710 mmHg 22%
    15:00 +35°C° 0 mm 4 mps 710 mmHg 22%
    16:00 +35°C° 0 mm 4 mps 710 mmHg 22%
    17:00 +35°C° 0 mm 4 mps 710 mmHg 22%
    18:00 +33°C° 0 mm 3 mps 710 mmHg 25%
    19:00 +30°C° 0 mm 2 mps 710 mmHg 29%
    20:00 +28°C° 0 mm 1 mps 710 mmHg 32%
    21:00 +27°C° 0 mm 2 mps 710 mmHg 33%
    22:00 +26°C° 0 mm 2 mps 710 mmHg 33%
    23:00 +26°C° 0 mm 2 mps 710 mmHg 34%

    29 June, Friday

    Time Temperature Precipitation Wind Pressure Humidity
    00:00 +25°C° 0 mm 2 mps 710 mmHg 34%
    01:00 +25°C° 0 mm 2 mps 710 mmHg 34%
    02:00 +24°C° 0 mm 2 mps 709 mmHg 34%
    03:00 +24°C° 0 mm 2 mps 710 mmHg 34%
    04:00 +23°C° 0 mm 2 mps 710 mmHg 34%
    05:00 +23°C° 0 mm 2 mps 710 mmHg 34%
    06:00 +25°C° 0 mm 1 mps 710 mmHg 32%
    07:00 +27°C° 0 mm 1 mps 711 mmHg 30%
    08:00 +29°C° 0 mm 1 mps 711 mmHg 28%
    09:00 +30°C° 0 mm 2 mps 711 mmHg 27%
    10:00 +32°C° 0 mm 2 mps 711 mmHg 25%
    11:00 +34°C° 0 mm 3 mps 711 mmHg 24%
    12:00 +35°C° 0 mm 3 mps 711 mmHg 23%
    13:00 +35°C° 0 mm 3 mps 711 mmHg 22%
    14:00 +36°C° 0 mm 4 mps 711 mmHg 22%
    15:00 +36°C° 0 mm 3 mps 711 mmHg 22%
    16:00 +36°C° 0 mm 3 mps 711 mmHg 22%
    17:00 +35°C° 0 mm 3 mps 711 mmHg 22%
    18:00 +34°C° 0 mm 3 mps 711 mmHg 25%
    19:00 +31°C° 0 mm 2 mps 710 mmHg 29%
    20:00 +29°C° 0 mm 2 mps 710 mmHg 32%
    21:00 +28°C° 0 mm 2 mps 710 mmHg 34%
    22:00 +27°C° 0 mm 2 mps 710 mmHg 35%
    23:00 +26°C° 0 mm 2 mps 710 mmHg 37%

    30 June, Saturday

    Time Temperature Precipitation Wind Pressure Humidity
    00:00 +26°C° 0 mm 2 mps 710 mmHg 37%
    01:00 +25°C° 0 mm 2 mps 710 mmHg 38%
    02:00 +25°C° 0 mm 2 mps 710 mmHg 39%
    03:00 +24°C° 0 mm 2 mps 710 mmHg 39%
    04:00 +24°C° 0 mm 2 mps 710 mmHg 39%
    05:00 +24°C° 0 mm 2 mps 710 mmHg 40%
    06:00 +26°C° 0 mm 2 mps 711 mmHg 37%
    07:00 +28°C° 0 mm 1 mps 711 mmHg 34%
    08:00 +30°C° 0 mm 1 mps 711 mmHg 31%
    09:00 +31°C° 0 mm 2 mps 711 mmHg 28%
    10:00 +34°C° 0 mm 2 mps 712 mmHg 26%
    11:00 +35°C° 0 mm 2 mps 712 mmHg 24%
    12:00 +36°C° 0 mm 2 mps 711 mmHg 23%
    13:00 +36°C° 0 mm 2 mps 711 mmHg 21%
    14:00 +37°C° 0 mm 3 mps 711 mmHg 20%
    15:00 +37°C° 0 mm 3 mps 711 mmHg 20%
    16:00 +37°C° 0 mm 3 mps 711 mmHg 20%
    17:00 +37°C° 0 mm 3 mps 711 mmHg 21%
    18:00 +35°C° 0 mm 3 mps 710 mmHg 24%
    19:00 +33°C° 0 mm 3 mps 710 mmHg 28%
    20:00 +30°C° 0 mm 3 mps 710 mmHg 32%
    21:00 +29°C° 0 mm 3 mps 710 mmHg 34%
    22:00 +28°C° 0 mm 3 mps 710 mmHg 36%
    23:00 +27°C° 0 mm 3 mps 710 mmHg 38%
    Show more